Temp
12 12 12 12 12 12 12 12 13 13 13 12 12 12 12 12 12 12 13 13 13 14 14 14 14 14 14 14 14 14 14 14 14 14 14 14 14 14 13 13 13 13 13 13 13 12 12 12 12 12 12 12 12 12 12 12 11 11 11 11 11 11 11 10 10 10 9 9 9
12 12 12 12 12 12 12 12 12 13 13 13 13 13 13 13 13 13 13 13 14 14 14 14 14 14 14 14 14 14 14 14 13 13 13 13 14 13 13 13 13 13 13 13 13 12 12 12 12 12 12 12 12 12 12 11 11 11 11 11 11 11 11 10 10 10 10 9 9
12 12 12 12 12 12 12 12 12 13 13 13 13 13 13 13 13 13 13 14 14 14 14 14 14 14 14 14 14 14 14 14 13 13 13 13 13 13 13 13 13 13 13 13 13 13 12 12 12 12 12 12 12 12 12 11 11 11 11 11 11 11 11 10 10 10 10 10 9
12 12 12 12 12 12 13 13 13 13 13 13 13 13 13 13 13 13 14 14 13 13 14 14 14 14 14 14 14 14 14 14 13 13 13 13 13 13 13 13 13 13 13 13 13 13 12 12 12 12 12 12 12 12 12 11 11 11 11 11 11 11 11 10 10 10 10 10 10
12 12 12 13 13 13 13 13 13 14 14 14 13 13 13 13 13 13 13 13 13 13 14 14 14 14 14 14 14 13 13 13 13 13 13 13 13 13 13 13 13 13 13 13 13 12 12 12 12 12 12 12 12 12 11 11 11 11 11 11 11 11 11 10 10 10 10 10 10
12 12 13 13 13 13 13 13 14 14 14 14 14 13 13 13 13 13 13 13 14 14 14 14 14 14 14 13 13 13 13 13 13 13 13 13 13 13 12 12 12 13 13 12 12 12 12 12 12 12 12 12 12 11 11 11 11 11 11 11 10 10 10 10 10 10 10 10 10
12 12 13 13 13 13 13 13 14 14 14 14 14 14 14 14 14 14 14 14 14 14 14 14 14 14 14 13 13 13 13 13 13 13 13 13 13 13 12 12 12 12 12 12 12 12 12 12 12 12 12 11 11 11 11 11 11 11 11 10 10 10 10 10 10 10 10 10 10
12 12 13 13 13 13 13 13 13 13 13 14 14 15 15 15 15 15 15 15 15 14 14 14 14 14 14 13 13 13 13 13 13 13 13 13 13 13 12 12 12 12 12 12 12 12 12 12 12 12 12 11 11 11 11 11 11 11 10 10 10 10 10 10 10 10 10 10 10
12 12 13 13 13 13 13 13 13 13 14 14 15 15 16 16 16 15 15 15 15 15 15 14 14 14 14 14 13 13 13 13 13 13 13 13 13 12 12 12 12 12 12 12 12 12 12 12 12 12 12 12 11 11 11 11 11 10 10 10 10 10 10 10 10 10 9 9 9
11 12 12 13 13 13 13 13 13 14 14 15 15 15 16 16 16 16 15 15 15 15 15 15 14 14 14 14 13 13 13 13 13 13 12 12 12 12 12 12 12 12 12 12 12 12 12 12 12 12 12 12 11 11 11 11 10 10 10 10 10 10 10 9 9 9 9 9 9
11 12 12 12 13 13 13 13 13 13 14 15 15 15 15 15 15 15 15 15 15 15 15 15 15 14 14 14 13 13 13 13 13 13 12 12 12 12 12 12 12 11 11 11 11 11 11 12 12 11 11 11 11 11 11 11 10 10 10 9 9 10 9 9 9 9 9 9 9
11 12 12 12 12 12 12 13 13 13 13 14 14 15 15 15 15 15 15 15 15 15 15 15 15 14 14 14 13 13 13 13 13 12 12 12 12 11 11 11 11 11 11 11 11 11 11 11 11 11 11 11 11 11 11 10 10 10 10 9 9 9 9 9 9 9 9 9 9
11 11 12 12 12 12 12 12 12 13 13 13 14 14 15 15 15 15 15 15 15 15 15 15 15 14 14 14 13 13 13 12 12 12 12 12 11 11 11 11 11 11 11 11 11 11 11 11 11 11 11 11 11 11 11 10 10 10 10 9 9 9 9 9 9 9 8 8 8
11 11 11 12 12 12 12 12 12 12 13 13 13 14 14 14 15 15 15 15 15 15 14 14 14 14 14 14 14 13 13 12 12 12 12 12 11 11 11 10 10 10 10 10 10 10 11 11 11 11 11 11 10 10 10 10 10 10 10 10 9 9 9 9 9 8 8 8 8
11 11 11 11 11 12 12 12 12 12 12 13 13 13 14 14 14 14 14 15 15 14 14 14 14 13 14 14 14 13 13 13 12 12 12 11 11 11 10 10 10 10 10 10 10 10 10 11 11 11 11 11 10 10 10 10 10 10 10 10 9 9 9 9 8 8 8 8 8
11 11 11 11 11 11 12 12 12 12 12 12 13 13 13 13 13 14 14 14 14 14 14 14 13 13 13 13 13 13 13 13 12 12 12 11 11 11 10 10 10 10 10 10 10 10 10 10 10 11 11 11 10 10 10 9 9 9 9 9 9 9 9 9 8 8 8 8 7
10 11 11 11 11 11 11 12 12 12 12 12 12 12 12 13 13 13 13 13 13 13 13 13 13 13 12 12 12 12 12 12 12 12 12 12 11 11 10 10 10 10 10 10 10 10 10 10 10 10 10 10 10 10 9 9 9 9 9 9 8 8 8 8 8 8 8 7 7
10 10 10 10 11 11 11 11 11 12 12 12 12 12 12 12 12 12 13 13 13 13 13 13 13 12 12 12 12 12 12 12 12 12 12 12 11 11 11 10 10 10 10 10 10 10 10 10 10 10 10 9 9 9 9 9 9 8 8 8 8 8 8 8 8 7 7 7 7
10 10 10 10 10 11 11 11 11 12 12 12 12 12 12 12 12 12 12 12 13 13 13 12 12 12 12 12 12 12 12 12 12 12 12 12 11 11 11 10 10 10 10 10 10 10 10 10 9 9 9 9 9 9 9 8 8 8 8 8 8 8 7 7 7 7 7 7 7
10 10 10 10 10 11 11 11 11 12 12 12 12 12 12 12 12 12 12 12 12 12 12 12 12 11 11 11 12 11 11 12 12 12 11 11 11 11 10 10 10 10 10 10 9 9 9 9 9 9 9 8 8 8 8 8 8 8 8 7 7 7 7 7 7 7 7 7 7
10 10 10 10 10 10 10 11 11 11 11 11 11 11 12 12 12 12 12 12 12 11 11 11 11 11 11 11 11 11 11 11 11 11 11 11 10 10 10 10 10 9 9 9 9 9 9 9 9 8 8 8 8 8 8 8 8 7 7 7 7 7 7 7 7 7 7 7 6
10 10 10 10 10 10 10 10 10 11 11 11 11 11 11 11 11 11 12 12 11 11 11 11 11 11 11 11 11 11 10 10 10 10 10 10 10 10 10 9 9 9 9 9 9 9 8 8 8 8 8 8 8 8 8 8 8 7 7 7 7 7 7 7 7 7 7 7 6
9 10 10 10 10 10 10 10 10 10 10 11 11 11 11 11 11 11 11 10 10 10 10 10 10 10 10 10 10 10 10 10 9 9 9 9 9 9 9 9 9 9 9 8 8 8 8 8 8 8 8 8 7 7 7 8 8 7 7 7 7 7 7 7 7 7 7 6 6
9 9 9 9 9 9 9 9 9 10 10 10 10 10 10 10 10 10 10 10 9 9 9 9 9 9 9 9 9 9 9 9 9 9 9 9 9 9 8 8 8 8 8 8 8 8 8 8 7 7 7 7 7 7 7 7 8 8 7 7 7 7 7 7 7 6 6 6 6
9 9 9 9 9 9 9 9 9 9 9 9 9 9 9 9 9 9 9 9 9 9 9 9 8 8 8 8 8 9 9 9 9 9 8 8 8 8 8 8 8 8 8 8 8 8 8 8 8 7 7 7 7 7 7 7 7 7 7 7 7 7 7 7 6 6 6 6 6
9 9 9 9 9 9 9 9 9 9 9 9 9 9 9 9 9 9 8 8 8 8 8 8 8 8 8 8 8 8 8 8 8 8 8 8 8 8 8 7 7 7 7 7 7 7 7 7 7 7 7 7 7 7 7 7 7 7 7 7 7 7 7 6 6 6 6 6 5
8 8 8 8 8 8 8 8 8 8 8 8 8 8 8 8 8 8 8 8 8 8 8 8 7 7 7 7 7 7 7 8 8 8 8 8 7 7 7 7 7 7 7 7 7 7 7 7 7 7 7 7 7 7 7 7 6 6 6 6 6 6 6 6 6 6 6 5 5
8 8 8 8 8 8 7 7 7 7 7 7 8 8 7 7 7 7 7 7 7 7 7 7 7 7 7 7 7 7 7 7 7 7 7 7 7 7 7 7 7 7 6 6 6 6 6 6 7 7 7 7 7 7 7 7 6 6 6 6 6 6 6 6 6 5 5 5 5
7 7 7 7 7 7 7 7 7 7 7 7 7 7 7 7 7 7 6 6 6 6 6 6 6 7 7 7 7 7 7 7 7 7 7 7 7 6 6 6 6 6 6 6 6 6 6 6 6 6 6 6 7 6 6 6 6 6 6 6 5 5 5 5 5 5 5 5 4
7 7 6 6 6 6 6 6 6 6 6 6 6 6 6 6 6 6 6 6 6 6 6 6 6 6 6 6 6 6 6 6 6 6 6 6 6 6 6 6 6 6 6 6 6 6 6 6 6 6 6 6 6 6 6 6 6 6 5 5 5 5 5 5 5 4 4 4 4
6 6 6 6 6 5 5 5 5 5 5 5 5 5 5 5 5 5 6 6 6 6 6 6 6 6 6 6 6 6 6 6 6 6 6 6 6 6 5 6 6 5 5 5 5 5 5 6 6 6 6 6 6 6 6 5 5 5 5 5 5 5 5 5 4 4 4 4 4
5 5 5 5 5 5 5 5 5 5 5 5 5 5 5 5 5 5 5 5 5 5 5 6 6 6 6 5 5 5 5 5 5 5 5 5 5 5 5 5 5 5 5 5 5 5 5 5 6 6 6 6 5 5 5 5 5 5 5 5 5 5 5 4 4 4 4 4 4
5 5 5 5 4 4 4 4 4 4 4 4 4 5 5 5 5 5 5 5 5 5 5 5 5 5 5 5 5 5 5 5 5 5 5 5 5 5 5 5 5 5 4 4 4 5 5 5 5 5 5 5 5 5 5 5 5 5 5 5 4 4 4 4 4 4 4 4 4
5 5 4 4 4 4 4 4 4 4 4 4 4 4 4 4 4 4 4 5 5 5 5 5 5 5 5 5 5 4 4 5 5 5 5 5 5 5 5 4 4 4 4 4 4 5 5 5 5 5 5 5 5 5 4 4 4 4 4 4 4 4 4 4 4 4 4 4 4
4 4 4 4 3 3 3 3 4 4 4 4 4 4 4 4 4 4 4 4 4 4 4 4 4 4 4 4 5 5 4 4 4 4 5 5 5 5 5 4 4 4 4 4 4 4 5 4 5 5 5 5 5 4 4 4 4 4 4 4 4 4 4 4 4 4 4 4 3
4 4 4 3 3 3 3 3 4 4 4 4 4 4 4 4 4 4 4 4 4 3 3 3 4 4 4 4 4 4 4 4 4 4 4 4 5 5 4 4 4 4 4 4 4 4 4 4 4 4 5 5 5 4 4 4 4 4 4 4 4 4 4 4 4 4 3 3 3
4 4 4 3 3 3 3 4 4 4 3 3 3 3 3 3 3 3 3 3 3 3 3 3 3 3 4 4 4 4 4 4 4 4 4 4 4 4 4 4 4 4 3 4 4 4 4 4 4 4 5 5 4 4 4 4 4 4 4 4 4 4 4 4 4 3 3 3 3
4 4 4 3 3 3 3 3 3 3 3 3 3 3 3 3 2 2 3 3 3 3 3 3 3 3 4 4 4 4 4 4 4 4 4 4 4 4 4 4 4 3 3 4 4 4 4 4 4 4 4 4 4 4 4 4 4 4 4 4 4 4 4 3 3 3 3 3 3
4 4 4 3 3 3 3 3 3 2 2 2 2 2 2 2 2 2 3 3 3 3 3 3 3 3 4 4 4 4 4 4 4 4 4 4 4 4 4 4 4 3 3 3 4 4 4 4 4 4 4 4 4 4 4 4 4 3 3 3 3 3 3 3 3 3 3 3 3
3 3 3 3 3 3 2 2 2 2 2 2 2 2 2 2 2 2 3 3 3 4 4 3 3 3 4 4 4 3 3 4 4 4 4 4 4 4 4 4 4 4 3 3 3 3 3 3 3 3 4 3 3 3 3 3 3 3 3 3 3 3 3 3 3 3 3 3 3
3 3 2 2 2 2 2 2 2 2 2 2 2 2 2 2 2 2 3 3 3 3 4 3 3 3 3 3 3 3 3 3 3 4 4 4 4 4 4 4 4 3 3 3 3 3 3 3 3 3 3 3 3 3 3 3 3 3 3 3 3 3 3 3 3 3 3 3 3
Height
790 792 793 795 797 799 801 803 804 806 807 808 810 811 813 815 816 818 819 820 821 822 824 826 827 829 831 833 835 836 838 840 841 842 843 845 846 847 848 849 850 850 851 852 853 854 855 856 856 857 858 858 859 859 860 861 861 862 862 862 863 863 863 863 864 864 864 865 865
788 790 791 793 796 797 799 801 803 804 806 807 808 809 811 812 814 815 817 818 819 821 822 824 827 828 830 832 834 835 837 838 840 841 842 844 845 846 847 848 849 849 850 851 852 853 854 855 856 856 857 858 858 859 859 860 861 861 862 862 862 862 863 863 863 864 864 864 865
786 788 790 792 794 796 797 799 801 802 804 805 807 808 810 811 812 813 815 817 818 820 822 823 825 827 829 831 832 834 836 837 838 840 841 842 844 845 846 847 847 848 849 850 851 852 853 854 855 855 856 857 857 858 859 859 860 860 861 861 862 862 862 863 863 863 864 864 864
784 786 788 790 791 793 795 796 798 800 802 804 806 807 809 810 811 812 814 816 817 819 821 822 824 827 828 830 831 833 834 836 837 838 840 841 842 843 845 846 847 847 848 849 850 851 852 853 854 855 855 856 857 857 858 859 859 860 860 861 861 862 862 862 862 863 863 863 864
782 783 785 787 789 790 792 794 796 798 800 802 804 806 807 809 810 812 813 815 816 818 819 821 823 825 827 829 830 832 833 835 836 837 838 840 841 842 843 844 845 847 847 848 849 850 851 852 853 854 855 855 856 857 857 858 859 859 860 860 861 861 861 862 862 862 862 863 863
779 781 783 785 787 789 791 793 795 797 799 801 802 804 806 807 809 811 812 814 815 817 819 821 822 824 826 827 829 830 832 833 835 836 837 839 840 841 842 843 844 845 847 847 848 849 850 851 852 853 854 855 856 856 857 857 858 858 859 859 860 860 861 861 861 862 862 862 862
777 779 782 784 786 788 790 792 794 796 797 799 801 802 804 805 807 809 811 812 814 816 818 820 822 823 824 826 827 829 830 832 833 834 836 837 839 840 841 842 843 844 845 846 847 848 849 850 851 852 853 854 854 855 856 857 857 858 858 859 859 860 860 861 861 861 861 862 862
775 777 779 782 784 786 788 790 792 794 796 797 799 800 802 804 806 807 810 812 813 815 817 818 820 821 823 824 826 827 829 830 832 833 834 836 837 838 840 841 842 843 844 845 846 847 848 849 850 851 852 852 853 854 855 856 857 857 858 858 859 859 860 860 861 861 861 861 862
775 776 778 780 782 784 786 788 790 792 794 795 797 799 801 802 804 806 808 810 812 813 815 817 818 820 822 823 824 826 827 828 830 831 833 834 836 837 838 839 841 842 843 844 845 846 847 847 849 849 850 851 852 853 854 855 856 857 857 858 858 859 859 860 860 861 861 861 861
772 774 776 778 781 783 785 787 789 790 792 794 796 798 800 802 803 805 807 808 810 812 813 815 817 818 820 822 823 824 825 827 828 829 831 832 834 835 837 838 839 840 842 843 844 845 846 847 847 848 849 850 851 852 853 854 855 856 857 857 858 858 859 859 860 860 861 861 861
769 772 774 776 778 781 783 786 787 789 791 793 795 797 798 800 802 804 805 807 809 810 812 813 815 817 818 820 822 823 824 825 827 828 829 831 832 834 835 836 837 839 840 841 842 843 844 845 846 847 848 849 850 851 852 853 854 855 856 857 857 858 858 859 859 860 860 861 861
767 770 772 774 777 779 782 784 786 788 790 792 793 795 797 798 800 802 804 806 807 809 810 812 813 815 817 818 820 821 822 824 825 827 828 830 831 832 834 835 836 837 839 840 841 842 843 844 845 846 847 848 849 850 851 852 853 854 855 856 857 857 858 858 859 859 860 860 861
766 768 771 773 776 778 780 782 784 786 788 790 791 793 795 797 799 801 802 804 806 807 809 811 812 814 815 817 818 820 821 822 824 826 827 828 830 832 833 834 835 837 838 839 840 841 842 843 844 845 846 847 848 849 850 851 852 853 854 855 856 857 857 858 858 859 859 860 861
765 767 769 772 774 776 778 780 782 784 786 788 789 791 793 795 797 799 801 802 804 806 808 809 811 813 814 815 817 818 819 821 823 824 826 827 829 830 832 833 834 836 837 838 839 840 841 842 843 844 845 846 847 848 849 849 851 852 853 854 855 856 857 857 858 858 859 860 860
764 766 768 770 772 774 776 778 780 782 784 786 787 789 792 793 795 797 799 801 803 804 806 808 810 811 813 814 815 817 818 820 822 823 825 827 828 829 830 832 833 834 836 837 838 839 840 841 842 843 844 845 846 847 848 849 849 851 852 853 854 855 856 857 857 858 858 859 860
762 764 766 768 770 772 773 776 778 780 782 784 786 788 790 792 793 795 797 799 801 803 805 806 808 810 811 813 814 816 817 818 820 822 823 825 826 827 829 830 832 833 834 836 837 838 839 841 842 843 844 845 845 846 847 848 849 850 851 852 853 854 855 856 857 857 858 858 859
760 762 764 766 767 769 771 773 776 778 780 782 784 786 788 790 792 793 795 797 799 801 802 804 806 808 809 811 812 814 816 817 818 820 822 823 824 826 827 829 830 831 833 834 835 837 838 840 841 842 843 844 845 846 847 848 849 850 851 852 852 853 854 855 856 857 857 857 858
758 760 762 763 765 767 769 771 773 775 777 779 782 784 786 787 789 791 793 795 797 798 800 802 804 806 807 809 810 812 813 815 817 818 819 821 822 824 826 827 829 830 832 833 834 836 837 839 840 842 843 844 845 846 847 848 849 850 850 851 852 853 854 855 855 856 857 857 858
755 757 759 761 763 765 767 769 771 773 775 777 779 782 784 786 787 789 792 793 795 797 798 800 802 804 805 807 808 810 812 813 815 816 818 820 821 823 824 826 827 829 830 832 833 835 836 837 839 840 842 843 844 845 846 847 848 849 850 851 851 852 853 854 855 856 856 857 857
753 755 757 759 761 763 765 767 769 771 773 776 778 780 782 784 786 787 789 791 793 795 797 798 800 802 804 806 807 808 810 812 813 815 817 818 820 822 823 825 826 828 829 831 832 834 835 837 838 839 840 842 843 844 845 846 847 848 849 850 850 851 852 853 854 855 856 856 857
751 752 755 757 759 762 764 766 768 770 772 774 776 778 780 782 784 786 787 789 792 793 796 797 798 800 802 804 806 807 809 811 812 814 816 817 819 820 822 823 825 827 828 830 831 832 834 835 837 838 839 841 842 843 844 845 846 847 848 849 850 850 851 852 853 854 855 855 856
749 751 753 756 758 761 763 765 767 769 771 772 774 777 778 781 782 785 787 788 790 792 794 796 797 799 800 802 804 806 808 810 811 813 815 816 818 820 821 823 824 826 827 828 830 832 833 834 836 837 838 839 841 842 843 844 845 846 847 848 849 850 851 851 852 853 854 855 855
748 750 753 755 758 760 762 764 766 767 769 771 773 775 777 779 781 783 786 787 789 791 793 795 796 798 799 801 803 805 807 808 810 812 814 816 817 819 821 822 823 824 826 827 829 830 832 833 835 836 837 838 839 841 842 843 844 845 846 847 847 848 849 850 851 852 853 854 854
747 750 752 755 757 759 761 763 764 766 768 770 772 774 776 778 780 782 784 787 788 790 792 794 796 797 799 801 802 804 805 807 809 811 813 815 817 818 820 821 822 823 825 826 827 829 831 832 833 835 836 837 838 840 841 842 843 844 845 846 847 847 848 849 850 851 852 853 853
747 749 752 754 756 758 759 761 763 765 767 769 771 772 775 777 779 781 783 785 787 789 791 793 795 797 799 800 802 803 805 806 808 809 812 814 815 817 819 820 822 823 824 826 827 829 830 831 832 834 835 837 838 839 840 841 842 843 844 845 846 846 847 848 849 850 851 852 853
746 748 750 752 754 756 758 760 762 763 766 767 770 772 774 776 777 780 782 784 786 788 790 792 794 796 798 799 801 803 804 806 807 809 810 812 814 816 818 819 821 822 824 825 827 828 830 831 832 833 834 836 837 838 839 840 842 842 843 844 845 846 846 847 848 849 850 851 852
745 747 749 751 753 755 757 759 761 763 765 767 769 771 772 775 777 779 781 783 785 787 789 791 793 795 797 798 800 802 803 805 807 808 810 811 813 815 817 818 820 821 823 825 826 828 829 831 832 833 834 835 836 837 838 840 841 842 843 844 844 845 846 847 847 848 850 851 851
744 746 748 750 752 754 756 758 760 762 764 766 768 770 772 774 776 778 780 782 784 786 788 791 792 794 796 797 799 801 802 804 806 807 809 811 812 814 816 817 819 821 822 824 826 827 828 830 831 832 833 835 836 837 838 839 840 841 842 843 844 845 845 846 847 848 849 850 851
743 745 747 749 752 754 756 758 760 762 763 765 767 769 772 774 776 778 780 782 783 785 787 789 791 793 795 797 799 800 802 803 805 807 809 811 812 814 815 817 819 821 822 824 825 827 828 829 830 832 833 834 835 836 837 838 839 841 842 842 843 844 845 846 847 847 848 849 850
742 744 747 749 751 753 756 757 759 761 763 765 767 769 772 773 775 777 779 781 782 784 786 788 790 792 794 796 798 800 801 803 805 806 808 810 812 813 815 817 819 820 822 823 825 826 827 828 830 831 832 834 835 836 837 838 839 840 841 842 842 843 844 845 846 847 848 849 849
742 745 747 749 752 753 755 757 759 762 763 765 767 769 771 773 775 777 778 780 782 784 786 788 790 792 794 796 797 799 801 802 804 806 808 810 811 813 815 817 819 820 822 823 824 826 827 828 829 831 832 833 834 835 837 837 838 839 840 841 842 843 843 844 845 846 847 848 849
743 745 747 750 752 754 756 758 760 762 763 765 767 769 771 773 775 777 779 781 783 785 787 789 790 792 794 795 797 799 800 802 804 806 808 810 811 813 815 817 819 820 822 823 824 825 826 827 829 830 831 832 834 835 836 837 838 839 840 840 841 842 843 844 845 845 846 847 848
743 746 748 750 752 754 756 758 760 762 764 766 768 770 772 774 776 778 780 782 783 785 787 788 790 792 793 795 797 799 801 802 804 806 808 810 812 813 815 817 818 820 821 822 824 825 826 827 828 830 831 832 833 834 835 836 837 838 839 840 841 841 842 843 844 845 846 846 847
743 746 748 750 752 754 757 758 760 762 764 766 768 770 772 774 776 778 780 782 784 785 787 788 790 791 793 794 796 798 801 802 805 807 808 810 812 813 815 817 818 820 821 822 823 825 826 827 828 829 831 832 833 834 835 836 837 837 838 839 840 841 842 842 843 844 845 845 846
743 746 748 751 753 755 757 759 761 763 765 767 769 771 773 774 776 778 780 782 784 786 787 789 791 792 794 795 797 799 801 803 805 807 808 810 812 813 815 817 818 820 821 822 823 825 826 827 828 829 830 831 832 833 834 835 836 837 837 838 839 840 841 842 842 843 844 845 845
744 746 748 751 753 755 757 759 761 763 765 767 769 771 773 775 777 778 780 782 784 786 788 790 791 793 795 797 798 800 801 803 805 807 809 810 812 813 815 816 818 819 821 822 823 824 826 827 827 829 830 831 832 832 833 834 835 836 837 837 838 839 840 841 842 842 843 844 844
744 746 748 750 753 755 757 759 761 763 765 767 769 771 773 775 777 779 780 782 784 786 788 790 792 793 795 797 798 800 802 804 805 807 809 811 812 813 814 816 817 819 821 822 823 824 825 826 827 828 829 830 831 832 832 833 834 835 836 837 837 838 839 840 841 841 842 843 843
745 746 748 750 752 754 757 759 761 763 765 767 769 771 773 775 777 779 781 782 784 786 788 790 792 794 796 797 799 801 803 805 806 807 809 811 812 813 814 816 817 819 820 822 822 824 825 826 827 828 829 830 830 831 832 832 833 834 835 836 836 837 838 839 840 840 841 842 842
746 747 748 750 752 754 757 759 761 763 765 767 770 772 773 775 777 779 781 783 785 787 789 791 793 795 797 798 800 802 804 806 807 808 809 811 812 813 815 816 817 818 820 821 822 823 824 825 826 827 828 829 830 830 831 832 832 833 834 835 836 836 837 838 839 839 840 841 842
747 747 749 750 752 754 757 759 762 764 766 767 770 772 774 776 778 780 782 784 786 788 790 792 794 796 797 799 801 802 804 806 807 809 810 811 812 814 815 816 817 818 820 821 822 823 824 825 826 826 827 828 829 830 831 831 832 832 833 834 835 835 836 837 838 838 839 840 841
748 749 750 752 753 755 757 760 762 765 767 769 771 773 775 777 779 781 783 786 787 789 791 793 795 797 798 800 801 803 804 806 808 809 811 812 813 814 815 816 817 818 819 821 822 822 823 824 825 826 827 827 828 829 830 831 831 832 832 833 834 834 835 836 837 837 838 839 839
Wind_Speed
43 43 43 43 43 42 41 41 41 42 42 42 42 42 42 41 40 41 42 42 42 41 41 40 39 38 36 35 34 33 32 30 29 28 26 25 24 23 22 21 21 20 19 18 17 16 16 15 14 14 14 14 13 13 12 11 11 11 10 9 9 9 8 8 8 8 7 7 7
44 44 44 44 43 42 41 41 41 41 42 43 44 44 44 43 42 42 43 43 43 42 41 40 39 38 37 35 34 33 32 31 30 29 27 26 25 24 23 22 22 21 20 19 18 17 17 16 15 15 15 14 14 13 13 12 11 11 10 9 9 9 8 8 8 7 7 7 7
45 45 44 44 43 42 41 41 41 42 43 43 44 44 44 44 44 44 44 44 43 42 41 40 39 38 37 35 34 33 32 31 31 30 28 27 26 25 24 23 22 22 21 19 19 18 17 17 16 16 15 15 14 14 13 13 12 11 10 10 9 9 8 8 8 8 8 7 8
45 45 44 44 44 44 44 44 44 44 44 44 44 44 44 44 44 44 44 44 43 42 41 40 39 38 37 36 35 34 33 32 31 30 29 28 27 26 25 24 23 23 21 20 19 19 18 17 17 16 15 15 15 14 14 13 12 12 11 10 9 9 9 9 8 8 8 8 8
46 46 46 46 46 46 46 46 46 45 44 44 43 43 43 43 43 43 43 42 42 42 41 40 39 38 37 36 35 34 33 32 32 31 30 29 28 27 26 25 24 23 22 21 20 20 19 18 17 17 16 15 15 14 14 13 13 13 12 11 10 9 9 9 9 9 9 9 9
47 47 47 47 47 47 46 46 46 46 45 44 43 42 42 42 42 42 42 42 42 41 40 39 38 38 38 37 36 35 34 33 32 32 30 29 28 27 26 26 25 24 23 22 21 21 20 19 19 18 17 16 16 15 15 14 14 13 12 12 11 10 10 9 9 9 9 10 10
48 47 47 47 47 47 46 46 46 45 45 44 43 42 42 42 42 42 41 42 41 40 40 39 39 38 38 38 37 36 35 34 33 32 31 30 29 28 28 27 26 25 24 23 22 22 21 21 20 20 19 18 17 17 16 15 14 14 13 12 12 11 10 10 10 10 10 10 11
48 48 48 47 47 47 46 46 45 44 44 43 43 43 43 42 42 41 41 41 40 40 40 39 39 39 39 38 38 37 36 35 35 33 32 31 30 29 29 28 27 26 25 24 23 23 22 22 21 21 20 20 19 18 17 16 16 15 14 13 12 11 11 10 10 10 10 11 11
46 47 48 48 48 48 47 46 45 45 44 43 43 43 42 42 41 41 40 40 40 39 39 39 39 39 39 39 38 38 37 36 36 35 34 33 32 31 30 29 28 27 26 25 25 24 23 23 22 21 21 20 20 19 19 18 17 16 14 13 13 12 11 11 11 11 11 11 12
46 46 47 47 47 47 47 46 46 45 45 44 43 43 42 41 41 40 40 39 39 39 39 39 39 38 39 39 39 38 38 37 37 36 35 34 33 32 31 30 30 29 28 27 26 25 25 24 23 22 21 21 21 20 19 18 18 17 15 14 13 12 12 11 11 11 11 12 12
47 47 47 47 47 47 46 45 44 44 44 43 43 42 42 41 41 40 40 39 39 39 39 38 38 38 38 38 39 39 38 38 37 36 36 35 34 33 32 31 31 30 29 28 27 27 26 25 24 24 23 22 21 21 20 19 18 17 16 15 14 13 12 12 12 12 12 12 12
48 48 47 47 47 46 45 44 43 43 43 42 42 42 42 41 41 40 39 39 39 38 38 37 37 37 37 38 38 39 38 38 38 37 36 35 34 33 32 32 31 30 29 29 28 28 27 26 26 25 25 24 23 22 21 20 19 18 17 16 14 13 13 12 12 12 13 12 12
47 47 46 46 46 45 45 44 43 43 42 42 42 42 42 41 41 40 39 39 38 38 37 37 36 36 36 37 38 38 38 38 38 37 36 35 34 33 32 31 31 30 29 29 29 28 28 27 26 26 26 25 25 24 22 21 20 19 18 16 15 14 13 13 12 13 13 12 12
46 45 45 45 45 45 45 44 43 43 42 42 42 42 42 41 41 40 39 38 38 37 37 36 36 36 36 36 37 38 38 38 37 36 35 34 33 32 32 31 31 30 30 29 29 29 28 28 27 27 26 26 25 24 23 22 21 20 18 17 15 14 13 13 13 13 13 12 12
44 44 45 45 45 45 45 44 43 43 42 42 42 42 42 41 41 40 39 38 37 37 36 36 36 36 36 36 37 37 37 37 36 35 34 33 33 32 32 31 31 30 30 30 30 29 29 28 27 27 27 26 25 25 24 22 21 19 18 16 15 14 13 13 13 13 13 12 12
43 44 44 44 45 45 44 44 43 42 42 42 42 42 41 41 41 40 39 38 37 37 37 37 37 37 37 36 36 36 36 36 35 35 34 33 33 32 32 31 31 31 31 30 30 30 29 28 27 27 26 26 25 25 24 22 21 19 17 15 14 14 13 13 13 13 13 12 12
43 44 44 44 44 44 44 44 42 41 41 41 41 41 41 41 41 40 40 39 38 37 37 37 38 38 38 37 37 36 36 36 35 35 34 34 33 33 32 32 32 31 31 31 31 30 29 28 27 27 26 25 25 24 23 21 20 18 16 15 14 14 13 13 13 13 13 12 12
43 44 44 44 44 44 44 44 43 42 41 42 41 41 41 41 40 40 40 39 39 38 38 38 38 39 39 38 38 37 36 36 35 35 34 34 33 33 33 32 32 32 32 31 31 30 30 29 28 27 26 25 24 23 22 20 19 17 16 15 15 14 14 14 14 13 13 12 12
42 43 43 43 44 44 44 44 43 43 42 42 42 42 41 41 41 40 40 40 39 39 39 39 39 39 39 39 38 38 37 36 35 34 34 33 33 33 33 32 32 32 32 32 31 31 30 29 28 27 26 25 23 22 21 20 18 17 17 16 16 16 15 15 14 13 13 12 11
42 42 43 44 44 44 43 44 44 43 43 43 42 42 41 41 41 41 40 40 40 39 39 39 39 39 39 39 38 38 37 36 35 34 34 33 33 32 32 32 32 32 32 32 31 31 30 29 28 27 26 25 24 22 21 20 19 18 18 17 17 17 16 15 14 13 13 12 11
41 42 43 44 44 43 43 43 43 43 43 42 42 42 42 42 41 41 41 41 40 39 39 39 39 39 39 39 38 38 37 36 35 34 33 33 32 32 32 32 32 32 32 32 32 31 30 29 28 27 26 25 24 22 21 20 19 19 19 19 18 17 16 15 15 13 13 11 10
41 42 43 43 42 42 42 42 42 41 42 42 42 42 42 41 41 41 41 40 40 39 39 39 39 39 39 39 39 38 37 36 35 34 33 33 32 32 32 32 32 33 33 33 32 32 31 30 28 27 26 25 24 23 21 21 20 20 20 19 19 18 17 16 15 14 13 12 11
40 40 40 40 40 40 40 40 40 40 40 41 41 41 41 41 41 40 40 39 39 39 38 38 38 38 39 39 38 38 37 36 35 34 33 32 32 32 32 32 32 33 33 33 33 32 31 30 29 27 26 25 24 23 22 21 21 21 21 20 19 18 17 16 15 14 13 12 11
38 38 38 38 38 38 39 39 39 39 40 40 40 41 41 40 40 40 39 39 38 38 38 38 37 37 37 37 37 37 37 36 35 34 33 32 32 32 32 32 33 33 33 33 33 32 31 30 29 27 26 25 23 22 22 21 21 21 21 20 20 19 18 17 15 14 13 12 11
36 36 36 36 37 38 38 38 38 39 39 39 40 40 40 40 39 39 39 38 38 37 37 37 37 36 36 36 36 36 36 35 35 34 33 33 32 32 32 33 33 33 33 32 32 31 30 29 28 27 25 24 23 22 22 22 21 21 21 20 20 19 18 17 16 15 14 12 11
35 35 35 36 37 37 38 38 38 39 39 39 39 39 39 39 39 39 38 38 37 37 37 36 36 35 35 35 35 35 35 34 34 34 34 33 33 33 33 33 33 33 32 31 30 29 28 27 27 26 25 24 23 23 22 22 21 21 20 20 19 18 17 16 16 15 14 12 11
34 34 35 36 36 37 37 37 38 38 38 38 38 38 38 38 38 37 37 37 36 36 36 35 35 35 35 35 35 34 34 34 34 33 34 34 34 34 33 33 33 32 31 30 29 28 27 26 25 24 24 24 23 23 23 22 22 21 20 19 18 17 16 16 15 14 13 12 11
34 34 35 35 35 35 35 35 36 36 36 37 37 37 37 37 36 36 36 36 36 35 35 35 34 35 35 34 34 34 34 34 34 33 33 34 34 34 33 33 32 31 30 29 28 27 26 25 25 24 24 24 24 23 23 22 22 20 19 18 17 16 15 15 14 13 12 11 10
33 34 34 33 33 33 33 33 34 35 35 35 36 36 36 35 35 35 35 35 35 35 35 34 34 34 34 34 34 34 34 34 34 34 34 33 33 33 32 31 30 29 28 28 27 27 26 26 25 25 24 24 24 23 23 22 21 20 19 17 16 15 15 14 13 12 12 11 10
32 32 32 32 31 31 31 32 32 33 33 33 33 34 34 34 34 34 35 35 35 35 35 35 34 34 34 34 34 34 34 34 34 34 34 33 33 32 31 30 28 28 27 27 26 26 26 26 26 25 24 24 23 22 22 21 20 19 18 16 16 15 14 13 13 12 12 11 11
30 30 31 30 30 30 30 30 31 31 31 32 32 33 33 33 33 34 34 34 34 34 34 34 34 34 34 34 34 34 34 34 33 33 33 33 32 31 29 28 27 27 26 26 26 26 26 26 25 25 24 23 22 21 20 19 18 17 16 15 15 14 14 13 13 13 12 12 12
29 29 29 29 29 29 29 29 29 30 31 31 31 32 32 32 33 33 33 33 33 33 33 33 34 34 34 34 34 34 34 33 33 33 32 32 31 30 29 28 28 27 26 25 25 25 25 25 24 24 23 22 21 20 19 18 17 16 15 14 14 14 13 13 13 13 13 13 13
29 29 28 28 28 28 28 28 29 30 30 31 31 31 31 32 32 32 31 31 32 33 33 34 34 35 35 34 34 34 33 33 32 32 31 31 30 29 29 28 28 27 25 24 24 24 23 23 23 22 21 20 19 19 18 17 16 15 15 14 14 14 13 13 14 14 14 14 14
29 28 28 28 27 27 28 28 29 29 30 30 30 30 31 31 31 31 31 31 32 32 33 34 34 34 34 34 34 33 33 32 31 31 30 30 30 29 29 28 27 26 24 23 23 22 22 21 21 21 20 19 19 18 17 17 16 15 15 15 14 14 14 14 14 15 15 15 15
29 29 28 28 28 28 28 29 29 30 30 30 30 31 31 32 32 32 32 32 32 32 32 32 33 33 33 32 32 32 32 31 30 30 29 29 29 29 29 27 26 24 22 21 21 21 20 20 19 19 19 19 18 18 17 16 16 15 15 15 15 15 15 15 15 15 16 16 16
30 29 29 29 29 29 30 30 30 30 31 31 31 31 31 32 32 32 32 32 32 31 31 31 31 31 31 31 31 31 31 30 30 29 29 29 29 29 28 26 24 22 20 20 20 20 19 19 18 18 18 17 17 17 16 16 16 15 15 15 15 15 15 15 16 16 16 17 17
30 30 30 31 31 31 31 31 32 32 32 31 32 32 31 31 31 31 31 32 32 31 31 31 30 31 31 30 30 29 29 29 29 28 28 28 27 27 26 25 23 21 19 19 19 19 18 18 18 17 16 16 16 16 15 15 15 15 15 15 15 15 15 15 16 16 17 17 17
31 31 32 32 33 33 33 33 33 32 31 31 31 31 31 31 31 30 31 31 32 32 31 30 30 30 30 30 29 28 27 27 27 27 27 26 26 25 25 24 22 20 19 18 18 17 17 17 16 16 15 15 15 15 15 14 14 14 14 14 14 14 14 15 15 16 16 17 17
30 31 32 33 34 34 33 32 32 31 31 31 31 31 31 31 31 30 30 31 31 32 31 30 30 30 29 28 28 27 26 25 25 25 25 24 23 23 23 22 21 20 18 17 17 16 16 16 15 15 14 14 14 14 14 14 14 13 13 13 13 13 13 13 14 14 15 16 16
30 31 32 33 34 33 33 31 30 30 31 31 31 31 31 31 31 30 30 30 30 30 30 30 29 29 28 28 27 26 25 24 23 22 22 21 21 20 20 20 20 19 18 16 16 15 15 15 14 14 13 13 13 13 13 13 13 13 13 13 13 13 13 13 13 14 14 15 16
30 31 32 32 33 33 32 31 30 30 31 31 31 31 31 31 30 30 29 29 29 29 29 29 28 28 27 27 26 25 24 23 21 20 19 19 18 18 18 18 18 18 17 16 15 15 14 14 13 13 13 13 13 13 13 13 13 13 13 13 13 13 13 13 13 14 14 15 15
Wind_Direction
190 190 190 190 190 190 190 190 190 190 189 188 188 189 189 189 189 190 190 190 191 191 192 192 192 191 190 189 189 189 188 188 189 191 192 193 192 192 190 190 189 188 187 185 183 180 177 175 173 170 167 164 162 158 155 152 149 145 141 136 131 128 126 125 126 129 131 131 129
190 191 191 191 191 190 190 190 191 191 191 190 191 191 191 191 191 191 192 192 193 193 193 193 193 192 190 189 190 190 189 189 189 190 192 193 193 193 192 191 191 190 189 188 186 183 181 179 178 175 172 170 168 165 161 158 156 153 148 143 138 135 133 133 134 136 138 138 136
191 191 191 191 190 190 190 190 191 191 192 192 192 193 192 192 193 193 193 194 194 194 194 194 193 192 191 190 191 191 191 190 190 191 192 192 193 193 193 192 192 192 191 190 188 186 184 183 182 180 177 175 174 171 167 164 163 159 155 150 146 143 141 141 142 144 146 146 144
191 191 191 191 191 191 191 191 192 192 192 193 194 194 194 194 195 195 195 195 195 195 195 195 194 193 192 192 192 192 192 192 192 192 192 193 193 193 193 193 193 193 192 191 190 188 187 186 185 184 182 180 179 177 173 170 168 165 161 157 155 152 150 149 150 152 153 152 150
191 192 192 193 193 193 193 193 193 193 193 194 194 195 195 196 196 197 196 196 196 196 196 196 195 193 193 193 193 193 193 193 193 193 194 194 194 194 194 194 194 194 193 192 191 190 188 187 187 186 186 184 183 181 179 176 173 170 167 165 162 161 159 158 158 159 158 157 154
192 193 194 194 195 195 194 195 194 194 194 194 194 195 195 197 198 198 198 198 198 198 197 197 196 194 194 194 194 194 194 194 194 195 195 195 195 194 195 195 196 195 194 192 191 191 190 189 187 187 187 186 185 184 183 181 178 176 173 170 169 168 166 166 165 165 164 162 160
193 193 194 194 195 195 195 195 195 195 195 195 195 195 196 197 198 199 200 200 200 199 199 198 197 196 195 194 195 195 195 195 195 196 196 196 195 195 195 196 196 196 195 194 192 191 191 191 189 187 187 186 186 186 186 185 183 181 179 176 174 173 172 172 172 171 170 168 165
193 194 194 195 196 196 196 196 195 195 195 196 196 197 198 198 199 200 201 201 201 201 200 200 199 198 196 196 196 196 196 196 196 196 196 196 196 195 196 196 197 196 196 195 194 192 192 193 192 190 188 188 187 187 187 187 187 186 184 182 179 178 177 177 177 176 175 173 170
193 194 195 196 196 196 197 197 197 196 196 197 198 198 199 199 199 199 200 201 201 202 201 201 200 199 198 197 197 197 198 197 197 197 197 197 196 195 196 196 196 196 196 196 195 194 194 193 193 193 192 190 189 189 189 189 188 189 188 187 185 182 181 181 181 180 179 176 173
192 193 194 195 196 197 197 197 198 198 198 198 199 199 199 199 199 199 200 200 201 201 202 202 202 200 199 199 199 199 199 199 199 198 197 197 196 196 196 196 196 196 195 195 195 195 194 194 193 193 193 193 191 190 190 190 190 190 190 191 189 187 184 183 183 183 182 179 176
193 193 194 195 195 196 196 197 198 199 199 199 199 199 199 199 200 200 200 200 201 201 202 202 202 201 200 200 200 200 201 201 200 199 199 198 197 197 196 196 196 196 195 194 194 194 194 194 194 193 192 192 192 191 191 190 191 191 192 193 193 191 188 186 186 185 184 181 178
193 194 194 195 195 195 196 196 197 198 199 199 200 200 200 200 200 200 201 201 201 202 202 202 202 202 201 200 201 201 202 202 202 201 200 199 198 197 197 197 197 196 196 195 194 194 195 195 194 193 191 191 191 192 191 191 191 192 194 195 195 194 192 190 187 186 185 183 180
194 193 194 194 194 195 195 196 197 198 198 199 200 200 200 201 201 201 202 203 203 203 203 203 202 202 201 201 201 202 202 203 203 202 201 200 199 198 198 197 197 196 196 196 195 195 195 195 195 193 192 191 191 191 192 192 192 193 194 196 197 197 196 193 190 187 186 184 183
194 193 193 193 194 194 195 196 197 198 198 199 200 201 201 201 202 202 203 204 205 205 204 203 202 202 201 202 202 203 203 203 203 203 202 201 200 199 198 198 198 197 197 196 196 196 196 196 196 195 194 192 192 192 192 193 193 194 195 197 198 198 197 195 192 189 187 185 185
193 193 193 193 193 194 195 195 197 198 198 199 201 201 201 201 202 203 204 205 206 206 205 204 203 202 202 202 203 204 204 204 204 203 202 201 200 199 199 199 198 198 197 197 197 197 197 197 197 196 196 194 194 193 193 194 194 195 196 198 199 200 198 196 193 190 188 188 187
193 193 193 193 193 194 194 195 197 198 198 199 201 201 201 201 202 203 204 205 206 206 205 204 203 202 201 202 203 204 204 204 204 203 202 201 200 200 200 199 199 199 198 198 198 197 198 198 198 197 197 196 195 195 194 195 195 195 195 197 199 200 199 196 193 191 189 189 189
193 193 193 193 193 194 194 195 196 197 198 199 200 201 201 201 202 202 203 204 205 205 204 204 203 202 201 201 202 203 203 203 203 203 202 201 201 200 200 200 200 199 199 198 198 197 197 197 198 198 198 197 197 196 196 196 195 195 195 196 197 198 198 196 193 191 190 190 191
193 193 194 194 194 194 195 195 196 197 198 199 200 200 201 201 201 202 203 204 205 204 203 203 203 202 201 201 201 202 202 203 203 202 202 202 201 201 200 200 200 200 199 199 199 198 197 196 196 197 197 197 197 197 197 196 196 195 194 194 195 195 194 193 192 191 190 190 190
193 193 194 194 195 195 196 196 197 198 199 199 200 200 201 201 202 202 202 203 204 205 204 202 202 202 202 201 201 201 202 203 202 202 202 202 201 201 201 200 200 200 199 199 199 199 197 196 195 195 196 196 196 196 196 196 195 194 193 193 192 191 191 190 190 189 189 190 190
193 193 194 195 195 195 196 196 197 198 199 199 200 200 201 202 202 202 201 202 203 204 203 202 201 201 201 201 201 201 201 202 202 202 202 201 201 201 201 200 199 199 199 199 199 198 197 196 195 195 195 195 195 196 195 194 194 193 192 191 190 188 188 188 188 189 190 191 192
193 194 195 195 195 195 196 196 197 198 198 199 199 200 201 201 202 202 202 202 202 202 202 201 201 200 200 200 200 200 201 201 201 202 202 201 201 201 200 199 198 197 197 198 198 197 197 196 195 194 194 195 195 195 194 193 192 191 190 188 188 187 186 187 188 190 191 193 195
194 194 195 195 195 195 195 196 196 197 197 198 199 199 200 200 201 201 202 202 201 200 200 200 201 201 200 200 200 200 200 200 200 201 202 201 201 200 200 199 197 196 196 196 196 196 196 196 195 195 194 194 195 195 194 193 191 189 188 187 186 186 186 187 189 191 194 196 198
194 194 194 194 194 194 194 195 195 195 196 196 197 198 198 199 199 200 200 199 198 198 198 199 200 201 201 200 199 199 198 198 199 200 201 201 200 199 198 197 196 196 196 196 196 195 195 195 195 195 194 194 194 194 193 192 190 189 187 186 186 186 187 189 191 193 196 198 201
192 192 192 192 192 192 193 193 193 194 194 195 195 196 196 196 197 197 196 197 197 197 197 197 198 199 199 198 198 198 198 197 197 198 199 200 199 198 196 196 196 196 196 196 196 195 195 194 194 194 194 194 194 193 192 191 190 189 188 187 187 188 189 190 193 195 197 199 203
190 190 190 190 190 191 191 192 192 192 193 193 194 194 194 194 194 194 194 195 195 195 195 195 196 196 196 196 196 197 198 198 197 197 197 198 197 196 195 195 196 196 196 196 196 196 196 196 195 194 193 192 192 191 190 190 189 189 189 189 189 189 190 192 194 196 199 201 204
187 187 188 188 189 189 190 190 191 191 191 192 191 191 191 192 192 193 192 192 193 193 194 194 194 194 194 194 195 196 198 199 199 198 196 195 195 194 194 194 195 195 196 196 196 196 197 197 197 195 193 191 190 189 188 188 188 189 190 191 191 192 193 194 196 198 200 202 205
185 185 186 187 187 187 188 189 189 189 189 189 189 189 190 190 190 190 190 190 190 191 192 192 192 192 193 193 194 195 196 198 198 198 197 195 193 193 193 194 194 195 195 195 195 196 196 197 197 196 194 191 190 189 188 187 188 188 189 191 192 194 196 197 198 200 201 202 206
182 183 184 184 184 185 186 186 186 186 187 187 187 187 188 188 187 187 187 187 188 188 188 189 190 191 191 192 193 195 196 197 197 196 195 194 193 192 192 193 193 194 194 194 194 194 194 195 195 194 193 191 190 189 189 188 188 188 189 191 193 196 199 201 202 203 203 204 207
180 180 180 180 180 181 182 182 183 184 184 185 185 185 184 184 184 184 184 185 185 185 185 186 188 189 189 190 192 194 195 195 195 194 193 192 192 192 192 192 192 192 191 191 191 191 192 192 192 191 191 190 190 189 189 189 190 190 191 193 195 198 200 202 204 205 207 209 212
177 177 176 176 176 177 178 179 180 181 181 181 181 180 180 180 181 181 182 182 183 184 185 186 186 187 188 190 191 192 192 193 193 192 190 190 189 190 190 190 189 188 187 187 187 188 188 189 189 189 189 189 189 190 190 191 192 193 194 196 198 200 202 204 206 208 211 214 217
173 173 172 172 172 173 174 176 176 176 176 176 176 177 177 177 178 179 180 181 181 183 184 185 185 186 188 190 190 190 190 190 190 189 189 188 188 187 187 185 184 182 181 181 182 184 185 186 187 187 187 188 189 190 192 193 195 197 198 199 201 203 206 208 211 213 216 220 222
169 168 168 167 167 168 170 171 171 172 172 173 173 174 175 175 176 178 179 179 180 181 182 183 184 185 186 187 187 188 188 187 187 187 187 187 186 184 182 180 179 177 176 176 178 180 182 184 186 186 187 188 190 192 193 195 197 199 201 203 206 208 211 214 217 220 223 225 226
164 164 163 163 163 163 165 166 167 168 169 169 170 171 172 173 174 175 176 178 179 180 181 183 184 184 184 184 184 184 185 185 185 185 185 185 183 180 178 176 175 173 173 174 177 179 181 183 185 187 188 189 191 193 195 197 199 201 204 207 210 214 217 221 224 226 228 229 229
159 159 159 158 158 159 160 162 163 164 165 166 167 169 170 171 171 172 174 177 179 181 182 183 184 184 184 184 183 182 182 182 182 183 182 182 180 177 175 173 173 172 173 175 177 179 182 184 186 188 189 190 192 194 196 198 200 203 206 209 212 216 219 223 226 228 229 230 230
156 156 155 154 155 156 158 159 161 162 163 163 165 167 169 171 172 173 174 176 177 178 179 181 182 182 182 182 182 181 180 179 179 179 179 178 177 175 173 171 171 172 173 176 178 181 183 185 188 190 191 192 194 196 198 200 201 204 207 210 213 216 220 223 225 227 228 229 229
156 156 155 153 155 156 158 159 160 161 162 163 164 166 168 170 171 173 174 175 174 174 174 175 177 177 177 177 178 179 178 177 176 175 175 175 175 173 171 170 169 170 173 177 179 182 183 186 190 192 194 194 195 196 198 200 202 205 207 210 213 215 219 222 224 226 227 228 229
158 158 157 155 156 158 159 160 161 162 162 163 164 165 166 167 168 169 171 172 171 170 170 172 172 173 173 174 174 175 175 175 173 171 171 173 173 172 170 168 168 168 172 177 180 182 185 187 191 194 195 195 195 196 198 200 202 204 206 209 211 214 216 219 222 224 226 228 229
159 160 159 158 158 159 160 161 161 161 161 162 163 164 164 164 164 166 168 170 169 167 167 169 170 170 171 172 171 170 170 170 170 169 169 170 172 172 171 169 168 169 172 177 181 183 185 188 191 194 194 194 194 195 197 199 201 203 205 207 209 211 214 217 220 222 224 226 228
159 160 160 159 158 158 158 159 159 158 159 159 159 161 162 162 162 163 166 168 168 167 166 166 166 167 168 167 165 163 164 166 168 168 168 169 172 173 173 171 170 171 174 178 180 183 185 187 190 191 192 192 192 194 195 197 199 201 203 205 207 209 212 215 218 221 223 225 227
157 159 159 158 157 157 156 155 155 156 157 157 157 157 158 159 160 161 164 166 167 166 165 164 163 163 163 161 160 159 159 162 164 167 168 169 171 173 175 174 173 173 175 177 179 181 183 185 187 188 188 189 190 192 194 197 199 201 203 206 208 210 213 215 218 222 224 226 228
156 157 157 156 156 155 154 152 153 154 155 155 155 156 157 158 158 159 161 162 163 162 161 160 158 157 157 157 156 156 156 158 160 163 165 167 169 172 175 176 175 173 173 174 177 180 181 182 185 187 187 188 190 192 195 198 201 204 206 209 212 215 217 220 223 225 228 229 230